Tracking 30264 objects as of 15-Feb-2025
HD Live streaming from Space Station
objects crossing your sky now

STARLINK-4413

Track STARLINK-4413 now!
10-day predictions
STARLINK-4413 is classified as:


NORAD ID: 53207
Int'l Code: 2022-084U
Perigee: 568.3 km
Apogee: 572.0 km
Inclination: 97.7 °
Period: 95.9 minutes
Semi major axis: 6941 km
RCS: Unknown
Launch date: July 22, 2022
Source: United States (US)
Launch site: AIR FORCE WESTERN TEST RANGE (AFWTR)
Your satellite tracking list
Your tracking list is empty




NASA's NSSDC Master Catalog

Two Line Element Set (TLE):
1 53207U 22084U   25046.10309362  .00001228  00000-0  10014-3 0  9996
2 53207  97.6535 109.4612 0002635  85.2655 274.8870 15.01261572141163
Source of the keplerian elements: AFSPC